GW4228 Weather Reports


Display with metric or nautical units.
time (UTC)temp
F
wind
direction
speed
MPH
gust
MPH
rain 1hr
in
rain 24hr
in
rain mn
in
humidity
%
barometer
mb
20260507210510 61 191 1.0 6.0 0.00 0.13 0.01 35 1004.8
20260507210025 61 220 1.0 6.0 0.00 0.14 0.01 36 1004.7
20260507205513 61 325 1.0 4.0 0.00 0.15 0.01 36 1004.7
20260507205013 61 34 2.0 4.0 0.00 0.16 0.01 32 1004.9
20260507204525 61 40 1.0 4.0 0.00 0.17 0.01 34 1004.8
20260507204004 62 150 1.0 5.0 0.00 0.18 0.01 34 1004.7
20260507203504 61 34 1.0 6.0 0.00 0.19 0.01 37 1004.7
20260507203026 62 48 2.0 6.0 0.00 0.21 0.01 32 1004.6
20260507202506 61 30 3.0 6.0 0.00 0.22 0.01 31 1004.6
20260507202009 62 343 1.0 4.0 0.00 0.23 0.01 37 1004.6
20260507201526 61 53 2.0 4.0 0.00 0.23 0.01 34 1004.6
20260507201004 62 304 1.0 4.0 0.00 0.24 0.01 34 1004.8
20260507200504 62 9 1.0 5.0 0.00 0.25 0.01 36 1004.8
20260507200006 61 253 2.0 5.0 0.00 0.25 0.01 37 1004.9
20260507195504 61 38 1.0 6.0 0.00 0.25 0.01 36 1004.9
20260507195002 62 11 2.0 6.0 0.00 0.25 0.01 35 1005.0
20260507194511 62 344 1.0 5.0 0.00 0.25 0.01 35 1005.0
20260507194003 62 215 1.0 4.0 0.00 0.26 0.01 38 1005.1
20260507193505 62 11 2.0 6.0 0.00 0.26 0.01 35 1004.9
20260507193003 62 148 2.0 6.0 0.00 0.26 0.01 36 1005.0
20260507192502 61 352 2.0 5.0 0.00 0.27 0.01 36 1005.0
20260507192007 61 284 1.0 5.0 0.00 0.27 0.01 35 1005.1
20260507191504 61 30 3.0 5.0 0.00 0.28 0.01 38 1005.1
20260507191002 62 352 2.0 7.0 0.00 0.29 0.01 35 1005.2
20260507190504 62 323 2.0 10.0 0.00 0.29 0.01 33 1005.3
20260507190006 62 55 2.0 10.0 0.00 0.30 0.01 39 1005.3
20260507185503 62 44 4.0 7.0 0.00 0.30 0.01 34 1005.4
20260507185003 63 182 1.0 6.0 0.00 0.31 0.01 34 1005.4
20260507184510 63 164 2.0 5.0 0.00 0.31 0.01 35 1005.4
20260507184003 62 335 2.0 11.0 0.00 0.33 0.01 34 1005.5
20260507183504 62 24 4.0 11.0 0.00 0.33 0.01 35 1005.5
20260507183028 62 328 0.0 11.0 0.00 0.34 0.01 42 1005.4
20260507182503 62 254 1.0 11.0 0.00 0.34 0.01 35 1005.5
20260507182002 63 65 2.0 7.0 0.00 0.35 0.01 34 1005.4
20260507181504 62 193 2.0 9.0 0.00 0.36 0.01 37 1005.5
20260507181006 62 219 2.0 9.0 0.00 0.36 0.01 34 1005.4
20260507180503 62 182 1.0 8.0 0.00 0.36 0.01 33 1005.4
20260507180005 63 324 3.0 8.0 0.00 0.36 0.01 37 1005.5
20260507175505 62 323 2.0 7.0 0.00 0.36 0.01 38 1005.4
20260507175004 63 26 1.0 7.0 0.00 0.36 0.01 43 1005.4
20260507174513 62 350 1.0 5.0 0.00 0.36 0.01 36 1005.3
20260507174004 62 222 1.0 6.0 0.00 0.36 0.01 38 1005.3
20260507173505 62 268 2.0 6.0 0.00 0.36 0.01 41 1005.3
20260507173014 62 219 2.0 9.0 0.00 0.36 0.01 41 1005.4
20260507172506 62 60 3.0 9.0 0.00 0.36 0.01 37 1005.4
20260507172004 62 340 2.0 7.0 0.00 0.36 0.01 41 1005.4
20260507171513 62 269 2.0 7.0 0.00 0.36 0.01 40 1005.7
20260507171005 62 15 1.0 8.0 0.00 0.36 0.01 47 1005.6
20260507170502 61 19 1.0 8.0 0.00 0.36 0.01 49 1005.7
20260507170004 61 37 2.0 8.0 0.00 0.36 0.01 47 1005.9
20260507165503 62 252 2.0 8.0 0.00 0.36 0.01 46 1006.0
20260507165003 61 155 2.0 8.0 0.00 0.36 0.01 45 1006.0
20260507164508 61 344 1.0 8.0 0.00 0.36 0.01 55 1006.1
20260507164003 61 34 2.0 8.0 0.00 0.36 0.01 50 1006.1
20260507163502 62 298 3.0 8.0 0.00 0.36 0.01 47 1006.1
20260507163014 61 150 1.0 5.0 0.00 0.36 0.01 59 1006.0
20260507162506 61 5 3.0 9.0 0.00 0.36 0.01 50 1006.1
20260507162006 60 211 3.0 9.0 0.00 0.36 0.01 49 1006.1
20260507161523 60 301 1.0 6.0 0.00 0.36 0.01 55 1006.1
20260507161007 59 360 1.0 5.0 0.00 0.36 0.01 54 1006.3
20260507160509 58 63 3.0 6.0 0.00 0.36 0.01 53 1006.3
20260507160016 58 59 3.0 6.0 0.00 0.36 0.01 51 1006.5
20260507155505 60 348 1.0 5.0 0.00 0.36 0.01 53 1006.6
20260507155004 59 21 3.0 5.0 0.00 0.36 0.01 57 1006.6
20260507154508 60 336 1.0 5.0 0.00 0.36 0.01 59 1006.7
20260507154007 59 351 2.0 5.0 0.00 0.36 0.01 57 1006.8
20260507153502 60 58 1.0 4.0 0.00 0.36 0.01 56 1006.7
20260507153014 59 42 3.0 5.0 0.00 0.36 0.01 55 1007.0
20260507152507 59 351 2.0 5.0 0.00 0.36 0.01 55 1007.1
20260507152004 59 36 2.0 8.0 0.00 0.36 0.01 55 1007.0
20260507151533 57 29 3.0 8.0 0.00 0.36 0.01 57 1007.2
20260507151006 57 73 1.0 4.0 0.00 0.36 0.01 55 1007.1
20260507150507 59 241 1.0 10.0 0.00 0.36 0.01 53 1007.3
20260507150018 60 34 3.0 10.0 0.00 0.36 0.01 55 1007.3
20260507145506 60 264 0.0 8.0 0.00 0.36 0.01 58 1007.3
20260507145007 59 342 2.0 8.0 0.00 0.36 0.01 53 1007.4
20260507144520 59 180 2.0 4.0 0.00 0.36 0.01 53 1007.4
20260507144003 59 36 1.0 4.0 0.00 0.36 0.01 60 1007.3
20260507143502 60 331 2.0 4.0 0.00 0.36 0.01 60 1007.3
20260507143012 59 252 2.0 4.0 0.00 0.36 0.01 61 1007.2
20260507142502 59 125 0.0 3.0 0.00 0.36 0.01 56 1007.2
20260507142008 59 360 1.0 4.0 0.00 0.36 0.01 56 1007.2
20260507141516 59 94 1.0 4.0 0.00 0.36 0.01 59 1007.3
20260507141007 59 21 1.0 4.0 0.00 0.36 0.01 62 1007.2
20260507140503 59 63 0.0 3.0 0.00 0.36 0.01 62 1007.2
20260507140023 57 22 1.0 3.0 0.00 0.36 0.01 57 1007.2
20260507135506 58 188 1.0 3.0 0.00 0.36 0.01 64 1007.1
20260507135009 56 219 1.0 4.0 0.00 0.36 0.01 59 1007.1
20260507134530 56 229 0.0 4.0 0.00 0.36 0.01 61 1007.3
20260507134007 55 25 2.0 4.0 0.00 0.36 0.01 62 1007.3
20260507133510 55 346 1.0 3.0 0.00 0.36 0.01 65 1007.4
20260507133021 54 196 2.0 4.0 0.00 0.36 0.01 63 1007.4
20260507132503 54 155 1.0 4.0 0.00 0.36 0.01 66 1007.5
20260507132010 54 264 1.0 4.0 0.00 0.36 0.01 68 1007.7
20260507131524 54 27 2.0 4.0 0.00 0.36 0.01 66 1007.5
20260507131006 54 241 1.0 3.0 0.00 0.36 0.01 70 1007.6
20260507130508 53 28 1.0 3.0 0.00 0.36 0.01 66 1007.5
20260507130019 53 239 0.0 3.0 0.00 0.36 0.01 65 1007.5
20260507125513 53 299 0.0 3.0 0.00 0.36 0.01 69 1007.5
20260507125011 52 352 0.0 4.0 0.00 0.36 0.01 68 1007.6
20260507124523 52 63 1.0 4.0 0.00 0.36 0.01 67 1007.6
20260507124006 52 9 0.0 4.0 0.00 0.36 0.01 70 1007.7
20260507123510 51 128 1.0 4.0 0.00 0.36 0.01 71 1007.8
20260507123024 51 44 1.0 2.0 0.00 0.36 0.01 74 1007.8
20260507122509 51 206 0.0 2.0 0.00 0.36 0.01 73 1008.0
20260507122012 50 173 1.0 2.0 0.00 0.36 0.01 75 1007.9
20260507121522 50 317 1.0 2.0 0.00 0.36 0.01 77 1008.0
20260507121003 49 351 0.0 2.0 0.00 0.36 0.01 78 1008.0
20260507120512 49 281 0.0 2.0 0.00 0.36 0.01 81 1007.9
20260507120018 49 26 1.0 2.0 0.00 0.36 0.01 79 1008.0
20260507115506 49 28 0.0 2.0 0.00 0.36 0.01 80 1007.9
20260507115007 48 48 0.0 3.0 0.00 0.36 0.01 80 1008.0
20260507114529 48 42 1.0 3.0 0.00 0.36 0.01 79 1007.9
20260507114007 48 18 1.0 2.0 0.00 0.36 0.01 81 1007.7
20260507113507 48 27 0.0 2.0 0.00 0.36 0.01 82 1007.8
20260507113025 48 316 0.0 2.0 0.00 0.36 0.01 83 1007.9
20260507112508 48 72 0.0 2.0 0.00 0.36 0.01 83 1007.9
20260507112008 48 76 0.0 2.0 0.00 0.36 0.01 83 1008.0
20260507111524 48 76 0.0 2.0 0.00 0.36 0.01 84 1008.2
20260507111007 48 37 0.0 2.0 0.00 0.36 0.01 84 1007.9
20260507110506 48 36 0.0 2.0 0.00 0.36 0.01 85 1007.9
20260507110024 47 46 0.0 2.0 0.00 0.36 0.01 85 1007.7
20260507105507 47 145 0.0 2.0 0.00 0.36 0.01 86 1007.8
20260507105007 47 145 0.0 2.0 0.00 0.36 0.01 85 1007.7
20260507104524 47 146 0.0 2.0 0.00 0.36 0.01 86 1007.7
20260507104003 47 253 0.0 2.0 0.00 0.36 0.01 87 1007.7
20260507103504 47 246 0.0 2.0 0.00 0.36 0.01 86 1007.8
20260507103004 47 244 0.0 2.0 0.00 0.36 0.01 86 1007.7
20260507102503 47 37 0.0 2.0 0.00 0.36 0.01 86 1007.9
20260507102006 47 19 0.0 2.0 0.00 0.36 0.01 87 1007.7
20260507101516 47 19 0.0 2.0 0.00 0.36 0.01 87 1007.6
20260507101004 47 37 0.0 2.0 0.00 0.36 0.01 87 1007.8
20260507100504 47 186 0.0 2.0 0.00 0.36 0.01 88 1008.0
20260507100011 47 186 0.0 2.0 0.00 0.36 0.01 88 1007.9
20260507095504 47 186 0.0 2.0 0.00 0.36 0.01 88 1007.8
20260507095002 47 32 0.0 2.0 0.00 0.36 0.01 88 1007.8
20260507094503 47 32 0.0 2.0 0.00 0.36 0.01 88 1007.9
20260507094003 47 32 0.0 2.0 0.00 0.36 0.01 88 1007.7
20260507093503 47 30 0.0 2.0 0.00 0.36 0.01 88 1007.8
20260507093004 47 30 0.0 2.0 0.00 0.36 0.01 89 1007.8
20260507092503 47 30 0.0 2.0 0.00 0.36 0.01 89 1007.9
20260507092002 47 30 0.0 2.0 0.00 0.36 0.01 89 1008.1
20260507091508 47 30 0.0 2.0 0.00 0.36 0.01 89 1007.7
20260507091004 47 30 0.0 2.0 0.01 0.36 0.01 89 1007.5
20260507090504 47 32 0.0 170.0 0.01 0.36 0.01 89 1007.8
20260507090012 47 171 0.0 170.0 0.01 0.36 0.01 89 1007.9
20260507085504 47 173 0.0 2.0 0.01 0.36 0.01 88 1007.6
20260507085005 47 173 0.0 2.0 0.01 0.36 0.01 88 1007.3
20260507084530 47 203 0.0 2.0 0.01 0.36 0.01 88 1007.1
20260507084005 48 101 0.0 2.0 0.01 0.36 0.01 87 1007.2
20260507083502 47 101 0.0 2.0 0.01 0.36 0.01 87 1007.1
20260507083004 48 74 1.0 2.0 0.01 0.36 0.01 87 1007.2
20260507082504 48 121 0.0 2.0 0.01 0.36 0.01 87 1007.1
20260507082003 48 192 0.0 4.0 0.01 0.36 0.01 86 1006.8
20260507081511 48 196 1.0 4.0 0.01 0.36 0.01 85 1006.8
20260507081003 49 80 0.0 2.0 0.00 0.35 0.00 84 1007.2
20260507080506 49 33 0.0 3.0 0.00 0.35 0.00 84 1007.2
20260507080006 49 39 1.0 3.0 0.00 0.35 0.00 84 1007.5
20260507075503 49 14 1.0 2.0 0.00 0.35 0.00 84 1007.2
20260507075006 49 136 0.0 2.0 0.00 0.35 0.00 85 1007.1
20260507074524 49 164 0.0 3.0 0.00 0.35 0.00 85 1007.1
20260507074003 49 339 0.0 3.0 0.00 0.35 0.00 85 1007.0
20260507073507 49 156 0.0 3.0 0.00 0.35 0.00 86 1007.1
20260507073020 49 166 0.0 2.0 0.00 0.35 0.00 86 1007.0
20260507072509 49 46 0.0 3.0 0.00 0.35 0.00 86 1007.0
20260507072002 49 66 1.0 3.0 0.00 0.35 0.00 86 1006.9
20260507071503 50 313 0.0 2.0 0.00 0.35 0.00 86 1007.0
20260507071003 49 48 1.0 2.0 0.00 0.35 0.00 86 1007.3
20260507070503 50 348 0.0 5.0 0.00 0.35 0.00 86 1006.9
20260507070012 50 63 1.0 5.0 0.00 0.35 0.00 86 1006.6
20260507065503 50 321 0.0 5.0 0.00 0.35 0.00 86 1006.8
20260507065004 50 33 0.0 4.0 0.00 0.35 0.00 86 1006.9
20260507064512 50 21 0.0 4.0 0.00 0.35 0.00 86 1006.8
20260507064007 50 325 1.0 2.0 0.00 0.35 0.00 86 1006.5
20260507063504 50 81 0.0 2.0 0.00 0.35 0.00 86 1006.5
20260507063016 50 80 0.0 2.0 0.00 0.35 0.00 86 1006.5
20260507062505 50 148 0.0 2.0 0.00 0.35 0.00 87 1006.5
20260507062010 50 45 1.0 2.0 0.00 0.35 0.00 87 1006.4
20260507061520 50 302 0.0 5.0 0.00 0.35 0.00 87 1006.5
20260507061007 50 240 0.0 5.0 0.00 0.35 0.00 87 1006.8
20260507060504 50 28 0.0 2.0 0.00 0.35 0.00 88 1006.8
20260507060004 50 350 0.0 2.0 0.00 0.35 0.00 88 1006.8
20260507055503 50 212 0.0 2.0 0.00 0.35 0.00 88 1006.8
20260507055003 50 211 0.0 2.0 0.00 0.35 0.00 88 1006.9
20260507054508 51 160 0.0 4.0 0.00 0.35 0.00 88 1006.8
20260507054003 51 271 0.0 4.0 0.00 0.35 0.00 87 1006.8
20260507053505 51 178 0.0 4.0 0.00 0.35 0.00 87 1006.5
20260507053014 51 302 0.0 4.0 0.00 0.35 0.00 88 1006.8
20260507052508 51 255 0.0 2.0 0.00 0.35 0.00 88 1006.8
20260507052008 51 311 0.0 2.0 0.00 0.35 0.00 87 1006.8
20260507051529 51 227 0.0 2.0 0.00 0.35 0.00 87 1006.5
20260507051005 51 284 0.0 3.0 0.00 0.35 0.00 87 1006.4
20260507050506 51 346 1.0 3.0 0.00 0.35 0.00 87 1006.5
20260507050023 52 123 0.0 3.0 0.00 0.35 0.00 88 1006.5
20260507045507 52 268 1.0 3.0 0.00 0.35 0.00 88 1006.7
20260507045004 52 265 0.0 5.0 0.00 0.35 0.00 88 1006.6
20260507044509 52 303 0.0 5.0 0.00 0.35 0.00 88 1006.7
20260507044004 52 59 1.0 5.0 0.00 0.35 0.00 89 1006.9
20260507043504 53 51 0.0 2.0 0.00 0.35 0.00 88 1007.0
20260507043012 53 63 0.0 2.0 0.00 0.35 0.00 88 1006.9
20260507042506 53 350 0.0 2.0 0.00 0.35 0.00 88 1006.7
20260507042004 53 270 0.0 2.0 0.00 0.35 0.00 88 1006.6
20260507041520 53 9 0.0 3.0 0.00 0.35 0.00 88 1006.6
20260507041008 53 318 0.0 3.0 0.00 0.35 0.00 88 1006.6
20260507040508 53 105 1.0 3.0 0.00 0.35 0.00 88 1006.5
20260507040021 54 284 0.0 2.0 0.00 0.35 0.00 89 1006.7
20260507035507 54 254 0.0 3.0 0.00 0.35 0.35 88 1006.5
20260507035006 54 323 1.0 5.0 0.00 0.35 0.35 89 1006.3
20260507034537 54 32 1.0 5.0 0.00 0.35 0.35 89 1006.2
20260507034007 55 323 1.0 4.0 0.00 0.35 0.35 90 1006.3
20260507033504 56 294 1.0 4.0 0.00 0.35 0.35 90 1006.3
20260507033012 56 20 2.0 4.0 0.00 0.35 0.35 91 1006.3
20260507032505 57 292 1.0 4.0 0.00 0.35 0.35 91 1006.6
20260507032006 57 321 1.0 3.0 0.00 0.35 0.35 92 1006.6
20260507031515 58 64 1.0 3.0 0.00 0.35 0.35 92 1006.4
20260507031002 58 320 0.0 5.0 0.00 0.35 0.35 92 1006.3
20260507030502 58 51 1.0 8.0 0.00 0.35 0.35 92 1006.1
20260507030003 58 323 1.0 8.0 0.00 0.35 0.35 92 1006.1
20260507025502 59 9 1.0 2.0 0.00 0.35 0.35 92 1006.0
20260507025003 59 321 0.0 2.0 0.00 0.35 0.35 92 1006.0
20260507024504 59 127 0.0 2.0 0.00 0.35 0.35 92 1005.8
20260507024004 59 277 0.0 6.0 0.00 0.35 0.35 92 1005.7
20260507023508 59 190 1.0 6.0 0.00 0.35 0.35 92 1005.6
20260507023008 59 227 0.0 3.0 0.00 0.35 0.35 92 1005.6
20260507022505 59 214 0.0 5.0 0.00 0.35 0.35 92 1005.7
20260507022006 59 192 1.0 5.0 0.00 0.35 0.35 92 1005.7
20260507021515 59 153 1.0 6.0 0.00 0.35 0.35 92 1005.7
20260507021007 59 149 0.0 6.0 0.00 0.35 0.35 92 1005.7
20260507020507 59 176 1.0 2.0 0.00 0.35 0.35 92 1005.9
20260507020004 59 182 0.0 2.0 0.00 0.35 0.35 92 1006.0
20260507015506 59 188 1.0 3.0 0.00 0.35 0.35 92 1006.0
20260507015002 59 224 1.0 3.0 0.00 0.35 0.35 92 1006.0
20260507014506 59 166 0.0 4.0 0.00 0.35 0.35 92 1006.1
20260507014004 59 122 0.0 4.0 0.00 0.35 0.35 92 1006.1
20260507013504 59 183 1.0 4.0 0.00 0.35 0.35 92 1006.2
20260507013008 59 130 1.0 4.0 0.00 0.35 0.35 92 1006.1
20260507012504 59 115 2.0 4.0 0.00 0.35 0.35 92 1006.0
20260507012002 59 162 1.0 3.0 0.00 0.35 0.35 92 1006.2
20260507011531 59 257 0.0 2.0 0.00 0.35 0.35 92 1006.2
20260507011005 59 158 0.0 2.0 0.00 0.35 0.35 92 1006.2
20260507010506 59 147 0.0 8.0 0.00 0.35 0.35 92 1006.2
20260507010019 59 179 1.0 8.0 0.00 0.35 0.35 92 1006.2
20260507005507 59 150 1.0 7.0 0.00 0.35 0.35 92 1006.2
20260507005006 59 146 1.0 7.0 0.01 0.35 0.35 92 1006.0
20260507004503 59 132 2.0 6.0 0.01 0.35 0.35 92 1006.2
20260507004005 59 202 2.0 5.0 0.01 0.35 0.35 92 1006.2
20260507003504 59 113 1.0 4.0 0.01 0.35 0.35 92 1006.1
20260507003015 59 190 0.0 4.0 0.02 0.35 0.35 92 1006.1
20260507002503 59 203 1.0 4.0 0.02 0.35 0.35 92 1006.1
20260507002003 59 148 1.0 3.0 0.03 0.35 0.35 92 1005.9
20260507001512 59 166 0.0 3.0 0.03 0.35 0.35 92 1006.0
20260507001004 59 180 0.0 9.0 0.03 0.35 0.35 92 1005.8
20260507000507 59 178 0.0 9.0 0.03 0.35 0.35 92 1005.8
20260507000016 59 149 2.0 9.0 0.03 0.35 0.35 92 1005.7
20260506235507 59 138 0.0 4.0 0.03 0.35 0.35 92 1005.8
20260506235007 59 192 0.0 7.0 0.02 0.34 0.34 92 1005.8
20260506234520 59 196 1.0 7.0 0.03 0.34 0.34 92 1005.8
20260506234011 59 146 0.0 5.0 0.03 0.34 0.34 92 1005.4
20260506233508 59 88 1.0 5.0 0.03 0.34 0.34 92 1005.5
20260506233004 59 178 2.0 8.0 0.02 0.33 0.33 92 1005.6
20260506232505 59 100 1.0 8.0 0.02 0.33 0.33 92 1005.6
20260506232003 59 165 1.0 4.0 0.01 0.32 0.32 92 1005.8
20260506231509 59 212 0.0 4.0 0.01 0.32 0.32 92 1005.9
20260506231005 59 187 0.0 4.0 0.01 0.32 0.32 92 1005.8
20260506230505 60 128 0.0 8.0 0.01 0.32 0.32 92 1005.8
20260506230016 60 159 1.0 8.0 0.02 0.32 0.32 91 1005.8
20260506225503 60 245 1.0 8.0 0.02 0.32 0.32 91 1005.8
20260506225004 60 238 0.0 9.0 0.03 0.32 0.32 91 1005.8
20260506224518 60 144 1.0 9.0 0.03 0.31 0.31 92 1005.9
20260506224007 60 130 3.0 9.0 0.04 0.31 0.31 91 1005.9
20260506223508 60 199 2.0 5.0 0.04 0.31 0.31 91 1006.0
20260506223022 60 136 1.0 6.0 0.04 0.31 0.31 91 1006.0
20260506222511 60 163 3.0 6.0 0.05 0.31 0.31 91 1006.1
20260506222011 60 204 1.0 5.0 0.06 0.31 0.31 91 1006.1
20260506221507 60 145 1.0 2.0 0.07 0.31 0.31 91 1006.1
20260506221003 60 126 0.0 4.0 0.07 0.31 0.31 91 1006.1
20260506220502 60 136 0.0 4.0 0.08 0.31 0.31 91 1006.1
20260506220012 60 156 1.0 9.0 0.08 0.30 0.30 91 1006.3
20260506215504 60 126 2.0 9.0 0.09 0.30 0.30 91 1006.4
20260506215007 60 130 3.0 7.0 0.09 0.29 0.29 91 1006.4
20260506214519 60 53 1.0 8.0 0.09 0.28 0.28 91 1006.3
20260506214007 60 217 1.0 8.0 0.09 0.27 0.27 91 1006.4
20260506213506 60 192 1.0 8.0 0.10 0.27 0.27 91 1006.5
20260506213020 60 139 2.0 10.0 0.12 0.27 0.27 91 1006.4
20260506212509 60 159 2.0 10.0 0.12 0.26 0.26 91 1006.7
20260506212010 60 184 1.0 8.0 0.12 0.25 0.25 91 1006.6
20260506211530 61 105 1.0 8.0 0.11 0.24 0.24 91 1006.7
20260506211010 61 117 3.0 8.0 0.12 0.24 0.24 91 1006.6